星链-30572 (STARLINK-30572 )

导读

STARLINK-30572是美国SpaceX公司星链(Starlink)项目的低轨通信卫星,于2023年10月21日发射入轨,隶属于星链第二代(Gen2)星座。作为全球最大低轨卫星星座的组成部分,它配备相控阵天线与激光星间链路技术,可提供高速宽带互联网接入,服务偏远地区、海上通信等场景,依托近地轨道运行大幅降低通信时延,提升了星链网络覆盖范围与传输性能。

基本信息
目录编号:
58114
目录名称:
STARLINK-30572
国际标识:
2023-161T
轨道中心:
EARTH
卫星名称:
星链-30572
卫星全名:
星链-30572 (STARLINK-30572 )
卫星状态:
在轨 (已飞行971 天)
发射日期:
2023-10-21 UTC
国别 :
美国 (US)
星等 :
--
轨道信息
数据来源 国际轨道数据
星历时间: 2026-06-17T07:42:33+0800
1天前
查看轨道信息
半长轴: 6853.397km
偏心率: 0.0001259
轨道倾角: 53.160°
近地点辐角 73.178°
升交点赤经 64.365°
平近点角 286.936°
近地点: 474.397km
远地点: 476.123km
周期: 94.106分钟
每日圈数: 15.301851
详细信息
固有亮度:
5
最大亮度:
0.3
卫星平台:
Starlink v2.0 mini
覆盖范围:
全球
运营商:
太空探索技术公司
运营商所在国:
美国
制造商(研发单位):
太空探索技术公司
制造商所在国:
美国
使用方式:
暂无
卫星简介
星链(Starlink)计划是由太空探索技术公司(SpaceX)提出的一个巨型低轨卫星互联网星座项目,计划在2019年至2024年间在太空搭建由约1.2万颗卫星组成的“星链”网络,其中1584颗将部署在地球上空550千米处的近地轨道,并从2020年开始工作。该卫星仍在工作。
2D轨道图
3D轨道图
轨道高度分析图
轨道倾角分析图
轨道综合分析图
查看轨道综合分析图